Theta_e
293 293 292 292 292 290 289 289 289 289 289 290 290 290 289 289 288 288 288 288 287 287 287 287 287 287 286 286 287 286 286 286 286 285 285 285 284 284 284 284 284 284 284 283 283 283 283 282 282 282 281 281 281 280 280 280 280 279 279 278 278 277 277 276 276 276 278 279 278 278 278 277 277 277 277 277 277 276 276 276 276 276 276 276 276
292 292 291 291 291 290 289 289 288 288 289 289 289 289 289 288 288 288 288 287 287 287 287 287 287 286 286 286 286 286 286 286 286 285 285 284 284 284 284 284 284 284 283 283 283 283 282 282 282 281 281 281 280 280 280 280 279 279 278 278 278 277 276 276 275 275 276 277 278 278 278 277 277 277 276 276 276 276 276 276 275 275 275 275 275
292 292 291 290 290 289 288 288 288 288 288 289 289 289 288 288 288 288 288 287 287 287 287 287 286 286 286 286 286 286 286 286 286 285 284 284 284 284 284 284 284 284 283 283 283 282 282 282 282 281 281 281 280 280 280 280 279 279 278 278 277 277 277 276 276 275 275 276 277 277 277 276 276 276 276 275 275 275 275 275 275 275 275 275 275
292 292 291 290 290 289 288 288 288 288 288 288 288 288 288 288 287 287 287 287 287 286 286 286 286 286 286 286 286 286 286 286 286 285 284 284 284 284 284 284 284 283 283 283 282 282 282 282 281 281 281 281 280 280 280 279 279 278 278 277 277 277 277 276 276 275 274 274 276 276 276 276 276 276 276 275 275 275 275 275 275 275 275 275 275
292 292 291 290 289 289 288 288 288 288 288 288 288 288 287 287 287 287 287 287 287 286 286 286 286 286 286 286 286 286 286 286 286 285 284 284 284 284 284 284 284 283 283 282 282 282 282 282 281 281 281 280 280 280 279 279 278 278 278 277 277 277 277 276 276 275 274 274 275 275 275 275 275 275 275 275 275 275 275 275 275 275 275 275 275
292 292 291 290 289 289 288 288 288 287 287 287 288 287 287 287 287 287 287 287 286 286 286 286 286 286 286 286 287 287 286 286 285 285 284 283 283 283 283 283 283 283 282 282 282 282 282 281 281 281 281 281 280 280 279 279 278 278 278 277 277 277 276 276 275 275 274 274 274 274 275 274 274 275 275 275 275 275 275 275 275 275 275 275 275
292 292 291 290 290 289 288 288 288 287 287 287 287 287 287 286 286 286 286 286 286 286 286 286 286 286 286 286 286 286 286 286 285 284 284 283 284 284 283 283 283 282 282 282 282 282 281 281 281 281 281 280 280 279 279 279 278 278 277 277 276 276 276 276 275 274 274 274 274 274 274 274 274 275 275 275 274 274 275 275 274 274 274 275 274
291 291 290 290 290 289 289 288 287 287 287 287 287 287 286 286 286 286 286 286 286 286 286 286 285 285 285 285 286 286 286 285 285 284 283 283 284 284 284 284 283 282 282 282 281 281 281 281 281 281 281 280 280 279 279 278 278 278 277 277 276 276 276 275 275 274 274 274 274 274 274 274 275 275 275 274 274 274 274 274 274 274 274 274 274
291 290 290 290 290 289 288 287 287 287 286 286 286 286 286 286 286 286 286 286 286 286 286 285 285 285 285 285 285 285 285 285 285 284 283 284 284 284 284 284 283 282 282 282 281 281 281 281 281 281 280 280 280 279 279 278 278 277 277 277 276 276 275 275 274 274 274 274 274 274 275 275 275 275 274 274 274 274 274 274 274 274 274 273 273
290 290 290 290 289 288 288 287 287 286 286 286 286 286 286 286 285 285 285 285 285 285 285 285 285 285 285 285 285 285 285 285 284 284 284 284 285 285 284 284 284 282 282 282 281 281 281 281 281 280 280 280 279 279 278 278 277 277 277 276 276 275 275 275 275 274 274 274 274 275 275 275 275 274 274 274 274 273 274 274 274 274 273 272 272
290 289 289 289 288 288 287 287 286 286 286 286 286 286 286 285 285 285 285 285 285 285 285 285 285 285 285 285 285 285 285 285 284 284 284 284 285 285 285 285 284 283 282 282 282 282 281 281 281 280 280 280 279 279 278 277 277 277 277 276 276 275 275 275 275 275 275 275 275 275 276 275 274 274 274 274 273 274 274 274 273 273 272 272 271
289 289 289 288 288 287 287 287 286 286 286 286 286 286 285 285 284 284 284 285 285 285 285 285 285 285 285 285 285 285 285 284 284 283 283 284 285 285 285 285 284 283 282 282 282 282 282 281 281 280 280 279 279 279 278 277 277 277 276 276 276 276 276 276 276 275 276 276 276 276 276 275 274 274 274 273 273 274 274 273 273 272 271 271 271
289 289 288 288 288 287 287 286 286 286 286 286 286 286 285 285 284 284 285 285 285 285 285 285 285 285 285 285 285 285 285 284 284 283 284 285 286 286 285 285 284 283 282 282 282 282 282 281 281 281 280 279 279 278 278 277 277 276 276 275 276 276 276 276 276 276 276 276 276 276 275 274 274 274 273 273 274 274 273 272 272 271 271 270 270
289 288 288 288 287 287 286 286 286 286 286 286 286 285 285 285 284 284 284 284 285 285 285 285 285 285 285 285 285 285 285 284 284 283 284 285 286 286 285 285 284 283 283 282 282 282 282 282 282 281 281 279 279 278 278 277 277 276 276 275 275 275 275 276 276 276 276 276 276 275 274 274 274 273 273 273 274 273 272 271 271 270 270 269 269
288 288 288 287 287 286 286 286 286 286 286 286 285 285 285 284 284 284 284 284 285 285 285 285 285 285 285 285 285 285 285 285 284 284 285 286 287 286 285 284 284 283 283 283 282 282 282 282 282 282 281 280 279 278 278 277 277 276 276 275 275 275 275 275 276 275 275 275 275 274 274 273 273 273 273 274 273 272 271 270 270 269 269 269 269
287 287 287 287 287 286 286 286 286 286 285 285 284 284 284 284 284 284 284 284 285 285 285 285 285 285 285 284 284 285 285 285 284 284 285 286 286 285 285 285 284 283 283 283 283 283 282 282 282 282 281 280 279 278 277 277 276 276 275 275 275 274 275 275 275 275 275 275 275 275 274 274 274 274 274 274 272 271 270 269 269 269 268 268 268
288 287 287 287 287 287 287 286 286 286 285 284 284 284 284 284 284 284 284 284 284 285 285 286 285 285 285 284 284 285 285 285 284 284 284 285 285 284 284 285 284 284 284 284 283 283 283 282 282 282 282 281 280 278 277 277 276 275 275 274 274 274 274 275 275 275 275 276 275 275 275 274 274 274 274 273 272 270 269 269 269 269 267 266 266
288 287 287 287 287 287 287 286 286 285 285 285 285 285 285 284 284 283 284 284 284 285 285 285 284 284 284 284 285 285 285 285 285 284 283 282 282 282 283 283 284 284 284 284 284 283 283 283 282 282 282 282 280 279 278 276 275 275 275 274 274 274 274 274 274 275 275 275 275 274 274 273 273 272 272 272 271 270 269 269 269 268 267 266 266
288 288 288 288 287 287 287 286 286 286 286 286 286 286 285 284 284 283 283 283 284 284 284 283 283 283 284 284 284 284 284 285 284 284 283 281 281 281 282 282 282 283 284 284 284 284 284 283 283 282 282 282 280 279 278 276 275 275 275 274 274 274 274 274 275 275 275 275 274 274 273 272 271 271 271 271 270 269 269 269 268 267 266 266 266
288 288 288 288 287 287 287 287 287 287 287 287 286 286 285 284 283 283 283 283 283 283 282 282 282 283 283 283 283 283 284 284 284 284 283 281 280 280 280 281 281 282 283 284 284 284 284 284 284 283 283 281 280 279 278 277 276 275 275 274 274 274 274 275 275 275 275 275 274 273 272 272 271 271 271 270 270 269 269 269 268 267 266 266 266
288 288 288 288 288 288 288 288 288 288 288 287 286 285 285 284 284 283 283 283 282 282 282 282 282 282 282 282 282 282 283 283 283 283 283 282 280 280 280 281 281 282 282 282 283 284 284 284 284 284 283 282 280 279 278 277 276 276 275 275 275 275 275 275 276 276 275 275 274 273 272 272 271 271 270 270 270 269 269 268 268 267 267 266 266
289 289 289 289 288 289 288 288 288 288 287 286 285 285 284 284 284 283 283 282 282 282 282 281 281 282 282 281 282 282 282 283 283 283 282 282 281 280 280 281 281 281 281 281 282 283 284 284 284 283 283 282 280 278 278 277 277 276 276 276 276 276 276 277 276 276 275 275 274 273 272 271 271 270 270 270 269 269 268 268 268 268 267 267 266
290 290 290 289 289 289 289 288 288 287 287 286 285 285 285 284 283 283 282 282 282 281 281 281 281 281 281 281 282 282 283 283 283 282 282 282 282 281 280 281 281 280 280 280 281 282 283 283 282 281 281 280 279 278 277 277 277 277 277 277 277 278 278 278 277 276 275 274 273 272 272 271 270 270 270 269 269 269 268 268 268 268 267 267 267
290 289 289 289 289 289 288 288 288 287 286 286 285 285 284 284 283 283 282 282 282 281 281 281 281 280 280 281 282 282 283 283 282 282 282 282 282 281 280 280 281 281 281 280 280 281 280 280 280 279 279 279 279 278 277 277 277 278 278 278 278 278 278 278 277 276 274 273 272 272 271 270 270 270 270 269 269 268 268 268 268 268 267 267 267
289 289 289 289 289 288 288 288 287 287 286 286 285 285 284 284 283 283 282 282 281 281 281 280 280 280 280 280 281 282 281 282 282 282 281 281 281 280 279 279 280 281 281 281 281 280 280 279 279 279 278 278 278 277 276 276 277 277 278 278 278 278 278 278 277 275 274 273 272 271 271 270 270 270 269 268 268 268 268 268 268 268 268 267 267
290 290 289 289 289 288 288 287 287 287 286 286 286 285 285 284 284 283 282 282 281 281 281 280 280 279 279 280 280 281 280 280 280 280 280 280 280 280 280 279 279 279 280 281 281 281 280 280 279 279 279 278 277 276 275 275 276 277 277 278 278 278 278 277 276 275 274 273 272 272 271 270 270 269 268 268 268 268 268 267 267 268 268 267 267
291 290 290 289 289 288 288 288 287 287 286 286 286 285 285 284 284 283 283 282 281 281 280 279 279 279 279 279 280 280 279 279 279 279 279 279 279 279 279 279 278 277 278 279 279 280 280 280 279 278 278 277 277 276 275 275 275 275 276 277 277 278 278 277 276 275 274 274 273 272 271 270 269 269 268 268 268 268 267 267 267 267 267 267 266
290 290 289 289 288 288 287 287 286 286 286 285 285 284 284 283 283 283 283 283 282 281 280 280 280 279 279 279 279 279 278 278 278 278 278 278 278 278 278 278 278 278 277 278 278 278 279 279 279 278 277 277 276 276 275 275 275 275 275 275 276 277 277 276 275 274 274 273 273 272 270 269 268 268 268 268 268 268 267 267 266 266 266 266 265
289 289 288 288 287 287 286 286 285 285 285 284 284 284 283 283 283 283 283 283 282 282 281 281 281 280 280 280 279 278 279 279 279 279 278 278 278 277 277 277 278 277 278 278 277 276 277 277 278 278 277 276 276 276 275 275 275 275 275 275 275 275 275 275 274 274 273 273 272 271 270 269 268 268 268 267 267 267 267 267 266 266 265 265 264
288 288 287 287 287 286 286 286 285 285 284 284 284 283 283 283 282 282 282 282 281 281 281 281 280 280 279 279 279 278 279 279 278 278 277 277 277 277 277 277 277 277 277 277 276 275 275 276 277 277 277 276 276 276 276 275 275 275 275 275 275 274 274 274 274 274 273 273 272 271 270 269 268 267 267 267 267 267 267 266 266 265 265 264 264
287 287 286 286 286 286 286 286 285 285 285 284 284 284 283 283 283 282 282 282 281 281 280 280 280 279 279 279 279 278 278 278 278 277 277 277 277 277 276 276 276 276 276 276 275 275 275 276 276 276 276 276 276 276 276 275 275 274 274 274 275 274 274 274 273 273 273 272 272 271 270 269 268 267 267 267 266 266 266 266 266 265 264 264 263
285 285 284 285 285 284 285 284 284 284 284 284 284 283 283 283 283 282 281 281 280 280 280 279 279 278 278 278 278 278 278 278 278 278 277 277 277 277 277 277 277 277 277 277 276 275 275 275 275 275 276 276 276 276 275 275 274 274 274 274 274 274 273 273 273 273 272 272 271 271 270 269 268 267 266 266 266 265 265 266 266 265 264 264 263
284 284 283 283 283 283 283 283 283 282 282 282 282 281 281 281 281 281 280 280 279 279 278 278 278 278 278 278 278 278 278 278 278 278 278 278 278 278 278 278 278 278 278 278 278 277 275 275 274 275 275 275 275 275 275 274 274 274 274 273 273 273 273 273 273 272 272 272 271 271 270 270 268 267 266 266 265 265 265 265 265 265 264 263 263
283 283 283 282 282 282 282 281 281 281 281 280 280 280 279 279 278 278 278 278 278 277 277 276 276 276 276 276 277 277 277 278 278 278 278 278 278 278 278 277 277 278 278 278 278 277 276 275 275 275 275 275 274 274 274 274 274 273 273 273 273 273 273 272 272 272 272 272 271 271 270 269 268 266 266 265 265 265 264 264 264 264 263 263 263
282 282 282 281 281 281 281 280 280 280 279 279 278 278 277 277 276 276 275 275 275 275 276 276 276 275 274 274 274 275 275 276 276 277 277 277 278 278 278 278 277 277 277 277 278 277 277 276 275 275 275 274 274 274 274 273 273 273 273 273 273 273 272 272 271 271 272 271 271 270 269 268 267 266 266 265 265 264 264 264 264 263 263 262 262
281 281 281 281 281 280 280 280 279 279 278 278 277 277 276 276 276 275 275 274 274 274 274 274 275 275 274 273 273 273 273 274 274 275 275 276 276 277 277 277 277 277 277 277 277 277 277 277 276 276 275 275 274 274 274 273 273 273 273 273 273 272 272 272 271 272 271 271 270 270 269 268 267 266 266 265 264 264 264 264 264 263 262 262 261
281 281 280 280 280 280 279 279 278 278 277 277 276 276 276 275 275 274 274 274 273 273 273 272 272 273 273 273 272 271 271 272 272 273 273 274 275 275 276 275 275 275 276 276 276 276 276 276 275 275 275 274 274 274 274 273 273 273 272 272 272 272 271 271 271 271 271 270 269 269 269 268 267 266 265 265 264 264 264 263 263 263 262 262 261
280 280 279 279 279 278 278 277 277 276 276 276 275 275 274 274 273 273 273 272 272 271 271 271 270 270 270 271 270 270 270 270 270 271 271 271 272 273 273 273 272 272 273 273 273 273 273 273 273 272 272 272 271 271 271 272 272 271 271 271 271 270 270 270 270 270 269 269 269 268 268 268 267 266 265 264 264 263 263 263 263 262 261 261 261
278 278 278 278 277 277 277 276 275 275 275 274 274 273 273 272 272 271 271 271 270 270 269 269 269 268 268 268 268 269 269 269 269 269 269 269 269 270 270 270 270 269 269 269 270 270 269 269 270 269 269 269 269 269 269 269 269 269 269 269 269 269 269 269 269 269 268 268 268 268 267 267 266 266 265 264 264 263 263 263 262 262 261 261 261
277 277 277 276 276 276 275 275 274 274 273 272 272 271 271 271 270 270 269 269 269 268 268 267 267 267 267 267 267 268 268 267 267 267 267 267 268 268 268 268 267 267 267 267 267 267 267 267 267 267 267 267 267 267 267 267 267 267 267 267 267 267 267 267 267 267 267 267 266 266 266 266 266 265 264 264 263 263 263 262 262 262 261 261 260
275 275 275 275 274 274 273 273 272 272 271 270 270 269 269 269 268 268 268 268 267 267 267 266 266 266 266 266 267 267 267 266 266 266 266 266 266 266 266 266 266 266 265 265 265 265 265 265 265 265 266 266 266 266 265 265 265 265 265 265 265 265 265 266 266 266 265 265 265 265 265 265 265 264 263 263 263 263 262 262 261 261 261 260 260
273 273 273 272 272 271 271 270 270 269 269 269 268 268 268 268 267 267 267 267 266 266 266 266 266 265 265 265 265 265 265 265 265 265 265 265 265 265 265 265 265 264 264 264 264 264 264 264 264 263 263 263 264 263 263 263 263 263 263 263 263 263 264 264 264 264 264 264 264 264 264 264 263 263 262 262 262 262 262 261 261 261 260 260 259
271 271 270 270 270 270 269 269 269 268 268 268 268 268 267 267 267 267 266 266 266 265 265 265 265 265 265 264 264 264 264 264 263 263 263 263 263 263 263 263 263 263 263 263 263 262 262 262 262 262 262 262 262 262 262 262 262 262 262 262 262 262 262 262 262 262 263 263 263 263 263 262 262 262 262 262 262 262 261 261 260 260 260 259 259
269 269 269 269 269 268 268 268 268 268 267 267 267 267 266 266 266 265 265 265 265 264 264 264 264 264 264 264 264 263 263 263 263 262 262 262 262 262 262 262 262 262 262 262 262 262 262 262 262 262 262 262 262 262 261 261 261 261 261 261 261 261 261 261 262 262 262 261 261 261 261 261 261 261 261 261 261 261 261 260 260 260 259 259 259
268 268 268 268 268 267 267 267 266 266 266 266 266 265 265 265 265 264 264 264 264 263 263 263 263 263 263 263 263 263 262 262 262 262 262 262 262 262 262 262 262 262 262 262 262 262 262 262 262 262 262 262 262 262 261 261 261 261 261 261 261 261 261 261 261 261 261 261 260 260 260 260 260 260 260 260 260 260 260 260 259 259 259 259 259
267 267 267 267 267 266 266 266 265 265 265 265 265 264 264 264 264 263 263 263 263 262 262 262 262 262 262 262 262 262 262 262 262 262 262 262 262 262 262 262 262 262 262 262 262 262 262 262 262 262 262 262 262 262 262 261 261 261 261 261 261 261 261 260 260 260 260 260 260 259 259 259 259 260 260 259 259 259 259 259 259 259 259 259 258
266 266 266 266 265 265 265 265 264 264 264 264 263 263 263 263 262 262 262 262 262 262 262 262 262 262 262 262 262 262 262 262 262 262 262 262 262 262 262 262 262 262 262 262 262 262 262 262 262 261 262 262 262 262 262 261 261 261 261 260 260 260 260 260 260 260 260 260 259 259 259 259 259 259 259 259 259 259 259 259 259 259 258 258 258
265 265 265 265 265 264 264 264 263 263 263 263 263 262 262 262 262 262 262 262 262 262 262 262 262 262 262 262 262 262 262 262 262 262 262 262 262 262 262 262 262 262 262 262 262 262 262 262 262 261 261 261 261 261 261 261 261 261 261 260 260 260 260 260 260 260 260 259 259 259 259 259 259 259 259 259 259 259 259 258 258 258 258 257 257
265 264 264 264 264 263 263 263 263 263 262 262 262 262 262 262 262 262 262 262 262 262 262 262 262 262 262 262 262 262 262 262 262 262 262 262 262 262 262 262 262 262 262 262 262 262 261 261 261 261 261 261 261 261 261 261 261 261 261 261 261 261 260 260 260 260 259 259 259 259 259 259 259 259 259 259 259 259 259 258 258 258 257 257 257
264 264 264 263 263 263 263 262 262 262 262 262 262 262 262 262 262 262 261 262 262 262 261 261 261 262 262 262 262 262 262 262 262 262 262 262 262 262 262 262 262 261 261 261 261 261 261 261 261 261 260 260 261 261 261 261 261 261 261 261 261 261 260 260 260 260 260 260 259 259 259 259 259 259 259 259 259 259 259 258 258 257 257 257 257
263 263 263 263 263 263 262 262 262 262 262 262 262 262 262 262 262 262 262 262 262 262 262 262 261 262 262 261 261 261 262 262 262 262 262 262 262 262 261 261 261 261 261 261 261 261 261 261 261 261 261 261 261 261 261 261 260 260 260 260 260 260 260 260 260 260 260 259 259 259 259 259 259 259 259 259 259 259 258 258 257 257 257 257 257
Wind_Speed
41 41 41 41 42 43 45 44 44 44 44 44 44 43 42 41 40 39 38 36 35 34 33 31 30 29 27 26 24 22 21 20 19 18 17 17 17 16 15 15 14 12 11 10 9 9 8 8 8 9 8 8 8 8 8 9 9 10 10 10 10 9 8 8 9 14 18 17 17 21 22 24 25 24 26 29 29 29 30 30 30 31 32 33 33
41 40 40 41 42 44 45 45 44 44 44 44 44 43 43 41 40 39 38 37 35 34 33 32 30 29 28 26 24 23 21 20 19 19 18 18 18 17 16 15 14 12 11 11 11 10 10 10 10 10 10 10 10 10 10 11 11 11 11 11 10 10 10 10 10 12 18 21 21 22 23 23 25 25 26 29 30 30 31 30 30 30 30 31 32
41 40 40 41 42 43 44 44 44 44 44 44 44 44 43 42 41 40 38 37 36 34 33 32 31 29 28 26 25 23 21 20 20 20 20 19 18 17 16 15 14 12 12 12 12 11 11 11 11 11 11 11 11 12 12 12 13 12 12 12 12 11 11 11 11 11 16 22 23 23 24 25 25 25 26 27 27 29 30 30 29 29 29 29 30
41 41 41 41 41 42 43 43 44 44 44 45 45 44 43 43 41 40 39 37 37 36 34 32 31 30 28 27 25 24 22 22 21 21 20 20 19 18 17 15 13 12 13 13 12 12 12 12 12 13 13 13 13 14 14 14 14 14 14 13 13 13 12 11 11 11 14 19 23 24 25 25 26 26 26 27 26 27 28 28 28 28 28 28 29
41 41 41 40 41 42 43 43 44 45 45 45 45 44 44 43 42 41 40 39 38 37 35 34 32 31 29 28 26 25 24 23 22 22 22 21 19 18 16 15 14 14 14 14 13 13 13 13 14 14 14 15 15 15 15 15 15 15 15 14 13 13 13 12 12 12 13 17 23 25 25 25 26 25 23 25 28 29 27 25 24 25 28 29 28
40 41 41 41 41 42 43 44 45 45 45 44 44 44 44 43 42 41 40 39 38 37 36 35 33 31 29 28 27 26 25 24 24 23 23 22 20 19 17 15 15 15 15 14 14 14 14 14 15 16 16 16 16 16 16 16 17 17 16 15 14 13 13 12 11 12 13 15 20 24 25 25 25 24 21 21 25 28 28 28 25 24 26 28 31
40 41 41 41 41 42 43 44 44 43 43 43 43 44 43 42 42 41 40 39 38 37 36 34 33 31 30 29 27 26 25 25 24 24 24 23 21 20 18 16 16 16 16 15 15 15 15 15 16 17 17 17 17 17 17 17 18 18 17 16 14 13 13 12 11 11 13 15 17 21 24 23 21 21 21 20 21 20 21 27 30 30 29 27 29
40 40 40 40 41 42 42 42 42 41 41 42 42 43 43 42 41 41 40 39 38 38 36 34 33 32 30 29 27 26 25 25 25 25 25 24 22 20 19 17 17 17 17 17 16 16 16 16 17 18 18 18 17 17 18 19 19 19 18 16 15 14 13 12 12 11 12 14 17 19 21 20 18 19 21 21 20 18 17 22 26 28 30 30 28
39 39 40 41 41 40 39 39 39 40 40 41 42 42 43 42 41 41 40 39 38 37 35 34 34 33 31 29 27 27 26 27 27 26 26 25 23 21 19 18 18 18 18 18 18 18 17 17 17 18 18 18 18 19 19 20 20 20 18 16 15 15 14 13 12 12 12 14 16 17 17 17 17 21 22 19 18 20 21 21 21 23 27 32 31
38 39 39 40 38 36 36 37 38 39 40 41 41 42 42 42 41 41 40 39 38 37 36 35 35 34 32 30 29 29 28 28 28 27 27 25 23 21 20 19 19 19 20 20 19 19 18 18 18 18 19 19 19 20 20 21 21 20 18 17 16 16 14 14 13 11 12 14 16 15 15 16 17 19 20 18 18 20 21 19 20 23 25 28 32
36 37 37 36 35 34 35 36 37 38 39 39 40 40 40 40 40 40 40 39 38 37 36 36 35 34 33 32 31 30 30 30 29 28 27 25 23 22 21 21 21 21 22 22 21 19 18 18 18 19 19 20 20 21 21 21 20 19 18 17 17 17 16 15 13 12 13 15 16 14 14 17 19 17 17 19 19 18 18 17 19 22 21 21 24
35 35 34 34 34 34 34 35 35 37 37 38 38 38 38 39 39 39 39 38 38 37 37 37 36 35 34 33 32 32 31 31 31 30 28 26 24 23 23 23 23 23 24 23 22 20 19 19 19 20 20 21 21 21 22 21 20 20 20 18 17 17 16 16 15 13 13 15 16 15 15 17 17 15 15 18 18 17 17 17 17 18 19 18 18
33 33 32 33 34 34 34 34 35 36 36 37 38 37 37 38 39 40 39 38 38 38 37 38 37 36 35 34 34 33 33 32 32 31 29 27 25 25 26 25 25 25 24 24 22 21 20 20 20 21 21 21 22 22 23 23 22 22 22 21 20 19 17 17 16 15 15 16 17 18 17 16 16 15 16 17 17 18 19 20 18 16 17 18 20
33 32 31 31 32 32 33 33 34 34 35 36 37 37 38 38 39 40 39 39 38 39 39 39 38 38 37 36 35 35 34 34 33 32 30 27 27 28 28 27 27 26 25 24 23 22 22 22 22 21 21 22 23 23 24 24 24 24 23 24 23 22 20 19 17 16 16 16 18 20 19 17 17 17 17 16 15 17 20 21 19 18 22 25 27
31 32 32 32 32 31 32 32 32 33 34 35 36 36 37 38 38 39 39 40 40 41 41 40 40 40 38 37 37 36 36 36 35 34 32 29 29 31 30 29 28 28 27 26 25 24 23 23 23 23 22 23 23 23 24 24 24 25 25 25 24 23 21 20 18 17 17 17 17 18 17 17 17 17 16 14 16 19 20 19 20 23 27 29 29
29 30 31 31 31 31 31 32 33 33 34 34 34 35 36 37 38 38 39 39 40 41 41 41 41 41 40 39 39 39 38 37 36 36 34 32 32 33 32 31 30 30 29 28 27 27 25 25 25 24 24 24 23 23 23 24 25 25 25 25 24 23 23 21 18 17 17 16 15 16 16 17 17 17 15 15 19 21 19 20 23 24 23 25 27
30 31 31 31 32 32 33 33 34 33 33 33 34 34 35 37 38 38 38 39 40 41 42 43 43 42 42 41 41 41 40 39 38 38 36 35 34 35 34 33 32 32 31 30 29 29 28 27 27 26 26 25 24 23 23 24 25 25 25 24 23 24 24 22 18 17 17 16 16 16 16 16 17 19 19 20 23 22 19 21 23 20 17 19 21
31 32 32 32 33 34 33 33 33 32 32 33 34 35 35 36 37 38 39 39 41 42 43 43 42 42 42 43 43 43 42 41 40 39 38 36 34 35 36 35 34 34 33 32 32 31 30 30 28 29 29 28 25 23 23 24 25 26 25 24 24 25 25 22 19 18 18 18 18 18 17 18 20 22 21 22 24 22 20 21 20 17 15 16 17
31 31 31 31 32 32 32 32 32 32 33 34 34 35 36 37 37 37 39 40 40 41 41 40 41 42 42 43 43 43 43 43 42 40 38 36 34 34 35 35 35 36 35 34 34 34 33 32 31 31 32 30 26 25 24 25 26 28 27 24 25 27 25 21 20 20 20 20 21 22 22 22 22 22 21 22 23 21 20 19 16 15 16 17 18
29 29 29 28 29 30 30 31 32 32 33 34 35 35 36 36 36 37 38 39 39 38 38 38 39 41 42 42 43 43 44 43 42 40 38 36 35 34 35 37 38 38 38 36 36 37 36 35 34 34 34 32 29 27 27 26 27 28 28 27 28 29 24 20 21 22 21 22 23 23 22 22 22 22 23 23 22 20 19 17 15 14 15 17 19
25 25 25 26 27 28 29 31 32 33 33 33 34 34 35 35 36 37 37 37 37 37 37 37 38 40 40 41 41 42 43 43 43 41 39 37 36 35 37 40 41 40 39 39 39 39 39 38 37 36 35 33 31 29 28 27 26 27 29 31 31 27 22 21 22 22 22 23 22 21 21 22 23 24 24 22 21 20 19 16 14 14 14 16 18
22 23 24 25 27 28 29 30 30 31 31 32 32 33 33 34 35 35 35 36 36 36 37 36 37 39 39 39 40 42 42 43 43 42 41 39 37 37 40 43 43 41 39 40 41 42 42 41 40 38 36 34 31 29 28 26 25 27 29 29 26 22 21 23 23 22 22 22 20 20 22 24 26 26 24 22 20 20 19 16 15 14 14 15 16
20 21 22 24 25 26 27 27 28 29 30 31 31 32 32 33 33 33 34 34 34 34 35 36 36 38 39 39 41 43 43 43 44 43 42 41 40 40 41 42 41 40 41 43 45 45 44 43 42 39 36 33 31 30 29 26 26 27 27 26 24 22 23 26 25 23 21 20 19 21 23 25 27 26 22 20 20 20 19 18 16 15 16 16 16
17 18 20 21 22 23 24 25 26 27 29 29 30 31 31 31 31 31 32 32 32 33 34 35 35 36 38 40 42 44 44 44 44 44 43 43 42 43 42 38 35 35 39 44 46 45 44 43 41 39 36 34 32 31 29 27 27 28 26 25 25 24 26 29 28 24 21 20 21 24 26 27 27 25 21 20 20 21 20 19 17 17 17 17 17
15 16 17 18 19 20 21 23 24 26 27 28 29 30 30 30 30 30 31 31 32 33 34 33 33 35 36 37 41 41 41 41 43 43 43 42 42 42 42 40 36 34 35 41 43 43 42 42 40 38 37 35 33 31 30 29 29 28 27 26 25 25 29 31 28 24 23 23 23 26 27 27 25 22 20 21 21 21 21 19 18 18 18 19 19
12 13 14 15 16 18 20 21 23 24 25 27 28 29 30 30 31 31 31 32 33 34 33 31 31 32 33 36 39 38 36 37 39 39 38 38 39 40 41 43 43 39 37 39 39 39 39 39 38 36 36 34 32 31 31 31 30 28 26 26 26 29 32 32 29 28 27 26 26 26 27 25 22 21 21 22 22 21 20 20 19 19 18 19 21
10 12 13 14 15 17 19 20 22 23 25 26 27 28 29 30 30 30 31 31 32 32 31 29 29 30 32 35 37 35 33 34 34 34 34 34 36 36 38 40 41 40 40 41 39 36 36 36 34 33 33 33 32 31 30 30 30 28 27 27 29 31 32 33 31 30 29 28 27 27 25 23 22 21 21 22 22 21 20 19 20 19 18 18 21
11 12 13 14 15 17 18 19 20 22 23 24 26 26 27 28 28 30 30 30 30 30 29 29 30 31 32 33 32 31 32 33 33 32 32 32 32 32 33 34 36 37 39 42 41 38 37 36 33 31 30 30 30 30 29 29 29 29 28 29 29 29 29 29 29 29 28 27 26 26 24 23 22 22 21 22 22 20 19 19 19 19 18 17 18
10 10 10 12 13 13 15 16 17 17 18 19 21 22 23 24 25 27 27 27 28 28 28 30 31 30 30 31 29 29 32 33 31 29 28 27 27 28 28 29 30 31 32 34 35 36 37 36 34 33 30 29 28 28 28 28 29 30 30 30 30 30 30 30 31 31 29 27 26 25 24 22 22 22 22 22 22 20 18 19 19 19 18 17 18
8 7 7 7 8 9 10 11 12 13 14 15 16 17 19 20 22 23 24 24 25 26 26 28 29 27 28 30 29 30 32 32 29 27 26 26 25 26 26 26 25 25 25 25 27 31 33 33 33 31 29 27 27 28 28 28 29 30 30 30 30 32 33 34 34 33 30 27 26 24 23 23 23 23 22 23 22 20 18 19 19 18 18 17 19
5 4 3 3 4 4 5 7 8 9 10 12 13 14 16 17 18 20 21 23 24 24 24 25 26 25 26 28 28 28 29 29 26 25 24 22 21 21 21 22 22 22 21 21 24 28 29 29 29 28 27 27 29 28 26 26 27 29 29 30 31 34 35 36 35 33 30 27 26 24 23 23 24 23 22 22 22 20 19 18 18 19 19 18 18
4 3 2 2 2 2 3 4 5 6 8 9 11 12 13 15 15 15 16 17 19 20 20 20 20 20 20 21 22 24 25 24 23 22 20 19 19 19 19 20 20 20 20 21 25 28 27 26 26 26 26 27 28 25 23 23 24 26 27 30 32 34 35 35 34 32 30 28 26 25 24 24 24 24 23 22 21 20 19 18 19 19 20 19 19
3 3 2 1 1 2 2 3 4 5 6 7 8 9 11 12 14 14 14 13 13 14 14 14 15 15 16 16 18 20 21 21 21 20 18 18 18 18 18 20 20 20 20 22 25 27 25 25 25 25 25 25 25 24 23 24 25 26 27 30 32 33 33 33 32 31 30 28 27 26 26 25 24 24 23 21 20 20 19 19 19 19 19 20 21
2 1 1 1 1 2 2 3 3 4 5 6 7 8 9 10 11 13 14 13 13 12 11 11 11 13 15 16 16 16 16 17 18 18 18 18 19 18 18 18 18 18 20 22 25 25 24 24 25 25 24 25 25 25 25 27 27 27 28 29 31 32 32 31 30 31 30 29 28 27 25 24 23 23 23 22 20 20 19 19 20 20 19 20 20
1 1 0 1 1 2 2 3 3 4 4 5 6 6 7 8 8 10 11 12 13 13 12 11 10 11 13 14 15 15 14 13 13 14 14 15 16 17 19 20 19 18 19 21 23 23 23 24 25 25 26 26 26 26 26 27 28 28 29 30 31 32 32 31 31 30 29 29 28 26 24 23 23 23 23 22 21 20 20 20 20 20 19 19 20
1 0 0 1 2 2 3 3 3 4 4 4 5 5 6 7 7 8 9 10 11 13 13 12 11 11 11 12 13 14 14 13 13 13 11 11 11 12 15 17 18 18 19 20 21 22 23 22 22 23 25 26 26 27 27 28 28 29 30 30 31 31 31 31 31 30 29 29 28 25 23 23 23 23 23 23 23 22 21 20 20 20 20 19 19
1 0 1 1 2 2 2 3 3 3 4 4 4 5 6 6 7 8 8 9 10 11 12 12 12 11 10 9 10 12 12 13 14 14 14 14 14 14 14 14 12 12 13 13 14 16 16 15 14 15 16 18 20 22 24 26 27 27 28 28 29 29 30 30 29 28 28 27 26 24 22 23 23 23 23 24 23 22 21 20 20 20 20 19 18
2 2 2 2 2 2 2 2 2 2 3 3 3 4 4 5 6 6 7 8 9 10 11 11 11 11 10 9 9 11 12 12 12 12 12 12 13 14 14 13 10 8 8 8 8 9 10 10 10 10 10 10 11 12 15 17 20 22 23 24 25 26 26 26 26 26 26 26 25 24 23 23 23 23 23 24 24 22 20 20 20 20 20 19 18
3 3 2 1 1 1 1 1 1 1 1 2 2 3 3 4 4 5 6 6 7 8 9 10 9 9 10 9 9 11 12 12 12 11 11 10 10 10 11 11 11 10 10 10 11 11 12 12 13 13 13 12 12 11 11 12 13 15 16 18 20 22 23 23 24 25 25 25 25 24 23 23 23 23 24 24 23 21 20 20 20 19 20 20 20
4 3 3 2 1 1 1 1 1 1 1 1 1 1 2 2 3 4 4 5 6 6 7 8 8 8 8 8 9 11 12 11 10 11 11 10 10 10 10 11 11 11 12 12 12 13 13 14 15 16 16 16 16 16 15 15 14 14 15 16 17 19 21 22 23 24 24 25 24 23 22 23 23 23 24 24 22 21 20 20 19 19 19 20 20
5 5 4 4 4 3 3 3 3 3 2 2 2 1 1 2 2 3 3 4 4 5 5 6 7 7 6 6 8 9 9 8 9 10 10 10 10 11 11 11 12 12 13 13 14 14 15 15 16 17 17 17 18 18 18 18 17 17 17 17 18 19 20 20 21 22 23 23 22 22 22 23 24 24 24 23 21 20 20 19 19 19 19 19 19
6 6 6 6 5 5 5 5 4 4 3 3 2 1 1 1 1 2 2 3 3 4 4 5 6 7 6 5 6 8 9 10 10 11 11 11 12 13 13 13 14 14 15 16 16 17 18 18 18 18 18 19 19 19 19 18 18 17 17 17 17 18 19 19 20 20 20 21 21 22 23 24 23 23 22 21 20 20 19 18 18 18 18 19 19
6 6 6 6 5 5 5 4 4 3 2 2 1 1 1 1 1 2 2 3 3 4 5 6 7 8 8 8 9 10 11 11 12 12 12 13 13 13 13 14 14 15 15 16 16 17 18 19 19 19 19 19 19 19 19 19 18 18 18 17 17 18 18 19 19 19 19 20 21 22 23 22 22 21 20 20 19 19 18 18 18 18 18 19 19
5 5 5 5 4 4 4 3 3 2 2 2 1 1 1 1 2 2 3 3 4 5 6 7 9 9 10 10 11 11 11 11 11 12 12 12 12 12 12 13 13 13 14 14 14 15 16 17 18 18 18 18 18 18 18 17 17 17 18 18 18 19 19 19 19 19 19 19 20 21 21 20 20 19 19 18 18 18 17 18 18 19 19 18 18
4 4 3 4 3 3 3 3 2 1 1 1 1 1 1 2 3 3 4 5 5 6 7 8 9 10 10 10 11 10 10 10 10 11 11 11 11 11 11 12 12 13 13 13 13 14 15 16 17 18 18 18 18 18 18 17 17 16 17 18 20 21 21 21 21 20 19 19 20 20 19 18 18 18 17 17 16 16 17 18 18 18 18 18 17
3 3 2 2 2 2 2 1 1 0 1 1 2 2 3 4 4 4 5 6 6 7 7 8 8 9 9 9 9 9 9 10 10 10 10 10 10 11 11 12 13 13 13 14 14 14 14 15 17 18 18 18 18 18 19 19 18 17 17 17 19 20 21 21 20 20 19 20 19 19 18 17 17 17 17 16 16 16 17 18 18 18 18 17 17
2 2 2 2 1 1 1 0 1 1 2 2 3 3 4 4 4 5 5 6 6 6 7 7 7 8 8 9 9 9 10 10 11 11 11 11 12 12 13 13 14 14 14 14 14 14 15 15 16 17 18 18 18 18 18 19 19 19 18 18 18 19 18 17 17 17 18 19 19 18 18 18 18 18 17 17 17 17 18 18 18 18 17 16 16
3 3 2 2 2 1 1 1 1 2 2 2 3 3 4 4 4 5 5 5 6 6 7 7 7 8 9 9 10 10 11 12 12 12 13 13 13 13 14 14 15 15 15 15 14 14 15 15 16 17 17 18 18 18 18 18 19 19 19 18 18 18 17 16 16 16 17 17 18 18 18 18 18 18 19 18 18 18 19 19 19 18 17 17 17
3 3 3 3 2 2 2 2 2 2 2 2 3 3 4 4 5 5 6 7 7 7 8 8 9 9 10 11 11 12 12 13 14 14 14 14 14 14 14 15 15 16 16 16 16 16 16 16 16 17 17 17 18 18 18 19 19 19 19 18 18 18 17 17 16 16 16 17 18 17 17 18 18 19 19 19 18 19 19 19 19 17 17 17 17
3 3 3 3 2 2 2 2 2 2 3 3 4 5 5 6 7 7 8 9 9 9 9 10 10 11 12 12 12 13 14 14 15 15 15 15 15 15 16 16 17 17 18 18 18 18 18 17 17 18 18 18 18 19 19 19 19 19 19 19 18 18 17 17 16 16 16 16 17 16 16 17 18 19 19 19 18 19 19 18 18 17 16 16 16
2 2 2 1 1 1 2 2 3 4 4 5 6 7 7 8 9 9 10 11 11 11 11 11 12 12 13 13 14 14 15 15 16 16 16 16 16 16 17 17 18 18 19 19 19 19 19 18 18 19 19 19 19 19 19 19 19 19 19 18 18 17 17 16 15 14 14 14 15 16 16 17 18 18 18 18 18 18 18 17 17 16 16 15 14
Wind_Direction
198 198 199 198 198 196 194 193 191 191 190 189 189 188 187 185 183 182 181 181 180 179 178 178 177 177 176 176 175 174 175 176 180 185 190 194 196 195 194 191 192 193 190 191 194 201 210 216 223 230 233 240 244 249 253 255 258 257 253 257 260 262 269 266 263 283 299 305 308 314 320 323 329 336 339 341 345 346 346 348 348 347 346 346 344
197 198 198 198 199 197 195 194 193 192 192 191 191 191 189 188 186 185 184 184 183 183 182 181 180 180 179 179 179 179 179 181 186 192 196 200 201 200 198 197 198 199 196 199 202 207 215 220 225 232 235 240 244 248 254 255 255 257 255 256 261 264 269 277 279 284 296 304 309 315 322 326 329 335 340 341 342 344 344 345 347 346 345 345 342
198 198 199 200 200 199 197 196 195 195 194 194 193 193 191 190 189 188 187 186 186 186 186 184 183 183 183 183 182 182 182 186 192 197 201 205 207 204 202 202 204 206 207 207 208 212 218 223 227 232 237 242 246 249 252 254 253 255 257 256 260 267 272 279 282 283 294 303 310 316 323 327 330 334 339 340 339 341 341 342 345 345 344 343 339
198 198 199 200 200 200 199 198 197 197 197 196 195 195 194 192 192 191 190 190 189 189 189 188 187 186 186 186 185 185 187 191 196 201 204 208 211 210 207 207 209 213 216 215 215 218 222 226 230 235 240 243 248 251 250 252 253 253 256 257 262 270 276 279 281 283 291 299 305 315 323 327 328 333 338 338 336 337 338 339 342 342 341 339 335
199 199 199 200 200 201 201 200 199 199 199 198 198 197 196 195 194 194 194 194 193 192 192 191 191 190 189 188 188 189 192 195 198 203 206 208 212 214 213 212 213 217 220 221 222 224 227 231 234 238 242 245 248 250 250 251 252 252 254 258 263 271 277 279 282 286 289 295 304 314 323 325 326 330 337 337 335 336 337 337 338 338 336 334 333
200 200 200 200 201 202 202 202 202 201 201 200 199 199 198 198 197 196 197 197 196 195 195 195 194 194 193 192 192 194 196 198 201 205 207 208 210 214 215 215 217 220 224 226 228 230 232 234 238 241 245 248 248 249 250 250 251 252 253 257 264 270 273 277 284 289 292 296 303 311 318 321 322 325 332 336 334 335 336 334 333 335 334 333 332
200 200 201 201 202 203 203 204 203 202 202 201 201 201 200 200 199 199 200 200 200 199 198 197 198 198 197 196 196 197 199 201 205 207 209 211 212 214 214 216 220 223 226 229 231 233 235 236 240 245 246 248 249 249 251 251 251 253 254 257 262 266 270 277 282 285 290 296 301 307 312 315 317 319 325 332 332 333 335 331 329 331 332 332 330
200 200 201 201 204 205 205 204 204 203 203 202 202 203 202 202 202 202 202 203 204 203 201 201 201 201 201 200 200 201 203 205 208 209 211 214 215 216 217 218 222 225 228 231 232 234 237 239 242 246 248 249 250 250 252 252 252 252 254 256 259 263 267 272 277 280 285 291 298 305 308 309 312 316 322 330 333 333 333 329 323 324 327 326 325
200 200 201 203 205 206 204 204 204 203 203 203 204 204 204 204 204 204 205 206 207 206 205 205 205 204 204 203 203 204 206 209 211 211 212 215 216 217 219 221 225 228 230 231 233 235 238 241 243 246 249 250 251 252 252 252 252 252 252 254 256 260 264 267 270 274 279 285 294 304 304 301 307 317 321 327 330 327 327 326 319 319 322 320 320
199 200 201 203 204 204 204 203 203 203 203 204 205 206 206 205 206 206 207 208 209 209 208 209 209 208 207 205 206 207 209 212 214 214 215 218 220 220 221 224 226 229 231 233 234 236 238 241 244 246 249 250 252 252 252 252 253 254 254 255 256 257 259 261 262 265 273 279 287 296 298 296 305 313 315 318 322 321 322 324 320 320 323 321 320
199 200 202 202 202 203 204 204 203 203 204 204 206 207 207 207 207 208 209 210 211 211 211 212 212 212 211 209 209 210 212 215 216 216 217 219 221 222 224 227 227 228 231 233 235 237 239 241 243 245 248 250 251 252 251 250 249 250 253 256 258 259 257 257 258 260 267 273 279 285 287 292 301 307 308 312 318 318 318 320 319 320 323 320 317
199 201 201 200 201 202 203 203 203 204 204 205 207 208 209 209 209 210 211 212 212 212 213 215 216 215 214 213 213 214 215 217 217 218 218 219 221 225 226 227 228 229 231 233 235 237 238 240 243 245 248 251 252 251 250 247 244 245 249 250 251 254 255 255 258 261 265 268 272 276 281 289 296 299 304 311 313 311 312 315 315 312 312 311 305
198 200 200 199 200 201 202 203 203 205 205 206 208 209 210 210 210 211 213 214 214 214 216 217 218 218 217 216 217 218 218 219 219 219 219 219 223 227 228 228 229 230 232 234 236 237 239 240 243 247 249 250 251 251 250 248 246 246 247 246 244 245 245 247 252 259 265 268 270 274 279 285 288 292 301 307 307 308 311 311 310 305 301 302 299
197 198 198 199 201 201 202 203 204 205 207 208 209 210 211 211 212 213 214 215 215 217 218 220 221 221 220 220 220 221 221 222 222 220 219 221 227 230 228 229 231 231 233 235 237 237 239 242 244 248 250 250 250 251 251 251 250 249 248 247 247 247 242 239 241 248 256 261 266 273 279 278 280 290 298 299 298 304 308 306 305 301 298 299 299
196 196 196 197 200 201 202 203 204 206 208 209 210 211 211 212 213 214 216 217 218 219 220 222 223 224 223 223 223 224 224 224 223 221 220 224 230 231 229 229 231 233 234 235 237 238 240 243 246 248 250 250 251 251 252 253 252 252 251 250 250 248 243 239 240 248 255 257 262 272 277 276 281 290 293 290 293 299 301 298 296 297 299 301 303
195 196 196 196 198 200 202 204 206 208 209 210 211 211 213 214 215 216 217 218 220 221 222 224 226 226 226 225 225 227 227 226 225 223 223 226 229 230 230 230 231 234 236 236 238 239 240 243 246 248 250 251 251 251 253 254 254 253 253 253 252 248 243 241 246 253 255 256 261 269 275 279 284 285 281 282 294 300 299 294 294 298 302 305 307
195 197 197 197 199 203 205 206 207 208 209 210 212 214 216 217 218 218 219 219 221 222 225 227 228 228 227 227 227 229 229 228 226 225 225 226 226 228 231 231 231 234 237 238 240 241 242 243 246 249 251 252 251 251 251 252 254 255 255 254 252 249 246 247 252 252 248 250 257 265 274 277 273 268 266 276 291 299 296 291 295 301 304 306 306
197 198 199 200 202 205 206 207 207 208 210 213 216 218 220 221 221 221 221 222 223 225 227 228 229 229 229 229 230 231 231 230 229 228 227 227 226 228 232 234 234 235 237 239 242 243 244 245 246 249 252 252 252 251 249 248 250 251 252 253 252 252 252 253 256 255 250 250 256 263 270 271 268 266 271 282 292 294 286 284 290 295 294 294 296
200 201 202 203 204 205 207 209 210 212 216 220 222 223 224 224 224 224 224 225 226 227 228 229 230 231 231 232 233 234 234 233 232 231 230 228 227 230 233 235 237 239 240 241 243 245 246 247 247 249 253 254 252 251 249 247 246 248 248 247 249 252 253 253 256 257 253 253 261 268 271 270 271 275 281 288 291 288 281 280 283 283 283 286 290
203 203 203 204 205 207 210 212 215 219 223 225 227 226 226 225 225 226 227 228 228 229 231 232 233 234 234 235 235 236 237 237 236 236 234 231 229 231 234 237 239 242 243 244 245 248 249 249 249 250 253 254 253 253 252 247 246 247 244 240 244 250 253 254 255 255 256 260 266 270 270 270 272 278 284 288 288 284 281 281 278 274 275 280 285
203 203 204 206 209 213 216 219 222 225 227 228 228 227 227 227 227 228 229 230 230 232 233 235 237 238 238 238 239 239 240 240 240 240 238 235 232 231 235 240 242 243 245 246 248 250 252 254 254 253 253 254 253 253 253 249 243 243 243 243 246 251 254 257 255 253 257 262 263 263 266 268 271 278 285 287 284 282 281 280 277 272 271 275 282
205 207 209 212 215 218 221 224 226 228 229 228 227 228 229 229 230 230 231 231 232 234 236 237 240 242 243 243 244 244 244 245 245 243 242 239 237 235 237 243 245 244 245 247 250 252 255 257 257 257 256 255 254 252 251 248 241 239 242 244 245 246 248 252 253 251 252 253 253 259 265 268 271 279 284 284 282 282 282 282 279 275 272 273 277
209 210 212 214 218 221 224 227 228 229 229 228 228 229 230 230 230 231 231 232 234 236 238 239 241 244 246 247 248 249 249 249 248 248 246 244 241 239 240 243 246 246 246 249 252 255 257 258 258 259 259 258 256 253 249 244 239 239 240 240 241 242 244 247 248 247 246 246 252 261 264 267 273 280 283 282 282 282 284 287 287 283 280 278 278
208 210 212 215 219 223 226 229 230 230 230 229 228 229 230 230 230 231 232 233 234 236 239 240 241 244 248 250 252 253 253 253 253 252 251 250 247 244 242 241 244 248 251 254 256 256 258 259 260 262 263 263 262 258 251 244 240 240 240 239 240 241 242 244 244 242 242 246 254 260 264 269 276 281 282 282 281 281 284 288 289 288 285 283 283
208 211 215 219 223 226 228 229 230 231 231 230 229 229 229 229 230 231 232 232 233 236 238 240 241 244 247 251 255 256 256 257 258 256 255 254 253 251 247 244 243 244 250 257 260 261 261 263 264 266 267 267 264 259 253 246 241 240 239 238 238 239 240 241 240 237 241 248 254 262 270 276 280 281 282 281 279 280 284 288 288 288 286 286 289
210 215 220 223 225 227 228 229 231 232 232 232 233 233 232 231 231 231 231 231 233 236 238 240 242 245 248 252 257 259 260 261 262 262 261 260 258 256 254 251 248 245 245 251 259 264 267 267 266 266 265 263 259 256 253 248 243 240 239 237 236 237 239 239 236 236 242 250 259 270 279 283 282 279 278 279 279 280 285 289 290 289 289 293 296
206 211 216 220 222 224 226 227 229 230 230 231 232 233 233 233 232 231 231 232 233 236 238 240 242 245 249 254 258 261 263 264 264 265 265 265 264 262 260 258 255 252 249 249 252 257 264 265 264 262 260 259 257 255 253 249 243 239 237 235 236 239 241 239 238 240 245 253 263 274 280 280 276 275 276 277 278 281 286 290 293 294 295 299 301
203 208 211 216 219 221 224 226 227 228 229 229 230 231 232 233 234 236 238 238 239 240 242 244 246 248 251 256 260 264 266 267 267 269 271 271 271 270 267 264 263 260 258 257 255 255 257 260 261 258 253 250 249 248 246 245 242 240 236 234 237 242 242 240 240 243 248 255 264 272 276 274 273 274 275 275 276 279 284 289 292 295 300 303 301
202 207 210 215 219 221 224 227 229 231 233 234 234 236 238 240 242 245 247 249 250 251 252 254 256 257 258 260 262 264 268 272 275 278 280 280 279 277 274 272 270 268 267 267 263 258 255 254 253 251 246 243 242 241 241 241 239 238 237 235 237 240 241 241 242 246 250 255 263 269 272 273 272 272 273 274 275 279 282 286 291 296 300 301 298
192 198 202 210 218 223 228 233 237 240 243 244 244 245 246 248 250 253 255 255 256 258 259 261 263 265 266 267 267 267 271 277 282 284 285 285 284 282 280 279 277 275 275 272 264 256 251 249 248 246 244 242 241 240 240 238 235 234 234 234 235 238 240 242 244 247 251 256 262 268 271 271 270 270 271 272 274 277 279 283 289 294 297 297 296
171 177 189 211 227 237 245 250 251 252 254 256 258 258 257 257 257 258 261 262 262 262 263 265 267 267 269 272 274 275 277 281 283 284 283 281 279 275 273 272 270 269 269 265 255 249 247 247 247 246 243 242 242 242 241 237 234 233 233 234 237 238 239 240 243 246 250 256 260 265 269 270 269 269 269 270 273 276 277 279 284 289 293 295 294
157 149 159 193 226 251 260 264 268 271 270 269 270 271 271 271 269 267 268 269 269 269 268 268 270 271 271 273 276 279 282 286 288 287 282 276 272 270 268 268 265 263 261 256 250 247 246 246 247 247 244 243 244 245 242 239 237 236 235 236 238 239 239 242 245 247 251 255 260 265 268 269 269 267 267 267 270 274 276 278 281 285 289 293 293
151 147 157 182 219 256 271 278 281 281 280 281 281 282 283 286 288 287 284 279 276 276 274 272 273 273 272 274 276 279 282 286 288 289 284 277 274 273 271 270 268 265 260 255 251 248 246 245 248 249 248 247 247 246 244 242 241 240 239 239 241 244 247 249 250 250 252 255 260 263 265 267 266 263 262 264 267 271 275 277 279 282 286 289 292
136 147 173 251 266 277 288 291 290 290 290 291 292 293 295 296 297 298 298 295 291 289 285 280 277 274 271 270 271 276 282 284 284 284 282 277 274 271 269 269 269 265 259 255 253 250 246 244 246 248 250 250 249 247 245 244 243 243 242 244 247 250 253 254 252 251 252 254 256 258 261 262 261 259 260 262 264 267 270 273 276 279 282 285 289
147 159 198 287 296 304 305 299 296 296 294 291 291 292 294 294 295 298 302 304 303 300 296 290 282 278 277 276 272 272 278 284 286 286 285 283 281 275 270 267 264 260 257 254 254 254 251 246 245 246 247 249 249 247 247 246 245 245 245 247 250 251 252 251 249 249 251 253 253 254 258 260 259 258 260 261 262 263 267 270 273 275 278 282 286
139 151 281 300 299 294 293 293 290 287 284 282 283 284 285 287 290 290 291 294 296 298 299 299 291 282 280 283 281 274 268 268 272 275 280 287 287 282 280 275 262 252 251 254 256 258 258 256 253 250 249 249 249 249 249 249 249 250 250 250 251 251 250 249 249 250 252 252 252 253 258 261 261 260 259 260 260 261 264 268 270 273 277 280 283
68 25 349 329 315 302 296 296 293 291 291 288 284 283 283 282 282 283 285 288 291 294 299 303 303 298 290 286 288 285 276 269 268 268 268 271 270 270 281 290 279 259 254 256 257 259 263 266 265 262 259 258 256 254 253 253 253 253 253 252 252 252 253 253 253 253 254 253 252 255 260 263 262 260 257 257 258 259 262 266 269 271 275 278 279
62 47 37 18 357 345 334 326 318 311 306 298 290 289 287 284 284 286 288 292 296 300 304 307 311 314 312 303 297 297 294 289 286 283 279 276 273 270 276 288 296 289 280 278 277 277 279 284 289 290 290 289 283 275 270 266 263 261 260 259 258 258 257 257 257 257 255 254 255 259 263 263 261 259 256 255 257 258 261 264 267 270 273 274 275
80 73 66 51 31 20 358 339 331 318 305 303 301 294 289 289 291 292 294 297 300 305 310 312 315 318 317 313 313 317 316 312 311 310 305 301 298 293 292 296 304 307 304 301 300 300 300 300 301 302 303 305 305 304 300 294 287 280 275 271 268 266 263 260 260 258 256 256 259 262 262 262 261 259 256 254 255 258 260 263 266 269 271 274 277
99 101 102 102 108 126 140 160 171 183 195 210 259 275 278 284 287 287 292 299 302 306 311 313 316 318 317 324 336 337 329 325 324 322 320 316 312 310 310 311 312 312 312 311 308 306 304 301 300 299 299 299 298 298 296 294 293 290 286 281 276 273 270 267 264 263 261 261 263 262 262 263 263 260 254 252 254 257 259 262 265 267 270 273 276
114 119 123 126 133 137 139 145 150 153 161 171 188 213 234 260 278 283 291 298 302 308 311 311 311 309 311 333 349 339 321 314 314 312 312 315 314 311 311 312 312 310 310 310 309 306 304 301 299 298 297 296 296 294 293 292 290 288 286 285 282 279 276 272 269 268 267 267 266 265 265 266 264 258 255 255 256 258 259 261 263 266 269 271 272
125 131 132 132 133 137 140 142 142 144 154 161 163 185 227 263 280 286 295 297 297 299 297 292 293 294 294 305 317 309 301 302 304 301 300 301 303 303 303 302 302 302 303 304 305 304 302 301 301 300 299 298 297 296 295 293 291 289 286 283 282 281 280 278 276 275 274 273 272 271 269 267 263 260 258 259 258 258 260 262 264 266 267 269 271
128 128 127 127 129 130 130 131 129 129 139 144 144 167 217 257 265 264 275 282 283 288 291 288 288 291 293 295 296 297 299 302 302 301 301 301 300 301 300 298 297 298 298 299 299 299 299 299 299 299 299 299 299 298 296 293 291 288 285 282 280 279 279 280 279 279 278 278 277 274 271 268 266 263 261 259 258 259 261 262 264 265 266 268 271
115 116 118 121 122 120 120 123 126 127 132 135 145 174 215 252 264 271 280 285 286 291 294 296 297 298 300 300 300 301 303 303 303 304 306 306 304 305 304 302 300 299 298 298 297 296 296 297 298 298 299 300 300 299 297 295 290 285 282 281 279 277 278 278 279 282 283 283 281 279 275 272 268 264 260 258 257 258 259 261 263 265 265 266 270
110 116 120 121 122 123 123 123 125 133 137 158 233 265 280 282 285 290 293 294 296 297 297 299 303 305 305 306 306 307 306 306 307 308 308 309 310 310 307 304 303 302 301 301 300 298 299 300 301 301 302 302 302 301 301 299 296 289 283 278 276 275 276 278 280 282 282 280 278 277 276 273 270 266 263 261 259 259 261 263 263 263 264 266 268
114 117 119 116 118 122 121 119 139 237 285 292 288 290 294 294 295 298 298 297 299 300 300 302 304 306 307 308 309 308 309 307 306 307 308 308 309 308 306 304 303 302 303 303 302 302 301 301 299 299 300 299 300 300 299 299 299 297 292 286 281 279 279 280 280 279 276 273 272 273 272 271 270 268 267 266 264 262 263 264 263 263 264 265 266
117 114 116 118 112 107 110 24 323 316 314 312 307 302 301 299 298 299 299 300 300 300 301 304 304 304 306 307 305 304 305 304 303 304 305 305 305 305 304 303 301 300 300 301 300 299 299 297 296 296 297 297 297 297 295 295 296 296 295 293 290 288 287 285 280 276 272 269 269 269 268 266 267 267 267 267 266 264 264 264 264 265 265 264 264
113 109 108 104 90 76 52 21 3 344 331 328 322 313 308 305 304 304 300 299 300 299 298 300 300 299 299 300 301 301 301 300 299 301 301 301 302 302 300 299 299 299 298 299 299 299 299 298 297 297 297 297 297 297 296 296 296 296 295 295 293 291 290 286 280 274 269 265 264 264 263 263 263 264 264 264 263 264 264 265 264 265 265 264 265
101 98 91 84 81 74 56 39 22 357 345 341 324 313 310 307 304 302 299 296 296 296 296 295 296 295 295 296 296 297 297 296 297 299 299 298 300 300 299 298 299 298 298 299 300 299 299 298 297 297 298 299 300 301 301 300 299 298 297 296 294 292 290 286 281 275 269 265 263 263 262 262 262 262 262 263 263 262 262 263 264 265 264 263 265
93 90 83 74 70 60 42 24 1 336 326 319 309 304 304 301 298 297 296 293 292 293 293 293 294 294 295 296 297 296 297 296 296 297 299 300 301 301 300 299 299 299 300 300 300 299 299 299 298 299 300 301 302 302 301 300 299 298 296 294 293 292 290 287 284 280 276 272 270 268 264 262 262 262 262 262 261 261 262 263 264 264 264 264 267
82 77 64 42 23 1 336 325 320 311 307 306 304 302 299 298 296 295 292 292 292 292 292 292 293 293 293 295 296 295 295 296 296 297 299 300 301 301 300 300 300 300 300 300 301 301 302 301 301 301 301 301 301 300 299 299 299 297 296 294 292 290 288 286 284 282 278 273 270 267 263 261 261 261 262 262 260 260 262 264 264 265 266 267 268